Temp
-5 -5 -5 -5 -5 -5 -6 -6 -6 -6 -6 -6 -6 -6 -6 -6 -7 -7 -7 -7 -7 -7 -7 -7 -7 -7 -7 -7 -7 -7 -7 -7 -7 -7 -7 -7 -7 -7 -7 -7 -8 -8
-5 -5 -5 -5 -5 -5 -5 -5 -6 -6 -6 -6 -6 -6 -6 -6 -6 -6 -7 -7 -7 -7 -7 -7 -7 -7 -7 -7 -7 -7 -7 -7 -7 -7 -7 -7 -7 -7 -7 -7 -7 -7
-5 -5 -5 -5 -5 -5 -5 -5 -6 -6 -6 -6 -6 -6 -6 -6 -6 -6 -6 -6 -7 -7 -7 -7 -7 -7 -7 -7 -7 -7 -7 -7 -7 -7 -7 -7 -7 -7 -7 -7 -7 -7
-5 -5 -5 -5 -5 -5 -5 -5 -5 -6 -6 -6 -6 -6 -6 -6 -6 -6 -6 -6 -6 -7 -7 -7 -7 -7 -7 -7 -7 -7 -7 -6 -6 -6 -7 -7 -7 -7 -7 -7 -7 -7
-5 -5 -5 -5 -5 -5 -5 -5 -5 -5 -6 -6 -6 -6 -6 -6 -6 -6 -6 -6 -6 -6 -6 -7 -7 -7 -7 -7 -7 -6 -6 -6 -6 -6 -6 -7 -7 -7 -7 -7 -7 -7
-5 -5 -5 -5 -5 -5 -5 -5 -5 -5 -5 -5 -6 -6 -6 -6 -6 -6 -6 -6 -6 -6 -6 -6 -7 -7 -7 -7 -6 -6 -6 -6 -6 -6 -6 -6 -6 -6 -7 -7 -7 -7
-5 -5 -5 -5 -5 -5 -5 -5 -5 -5 -5 -5 -5 -5 -5 -5 -6 -6 -6 -6 -6 -6 -6 -6 -6 -7 -7 -7 -6 -6 -6 -6 -6 -6 -6 -6 -6 -6 -7 -7 -7 -7
-5 -5 -5 -5 -5 -5 -5 -5 -5 -5 -5 -5 -5 -5 -5 -5 -5 -6 -6 -6 -6 -6 -6 -6 -6 -6 -6 -6 -6 -6 -6 -6 -7 -6 -6 -6 -6 -6 -7 -7 -7 -7
-5 -5 -5 -5 -5 -5 -5 -5 -5 -5 -5 -5 -5 -5 -5 -5 -5 -5 -5 -5 -6 -6 -6 -6 -6 -6 -6 -6 -6 -6 -6 -6 -6 -7 -7 -7 -7 -7 -7 -7 -7 -7
-5 -5 -5 -5 -5 -5 -5 -5 -5 -5 -5 -5 -5 -5 -5 -5 -5 -5 -5 -6 -6 -6 -6 -6 -6 -6 -6 -6 -6 -6 -6 -6 -6 -6 -6 -7 -7 -7 -7 -7 -7 -7
-5 -5 -5 -5 -5 -5 -5 -5 -5 -5 -5 -5 -5 -5 -5 -5 -5 -5 -6 -6 -6 -6 -6 -6 -6 -6 -6 -6 -6 -6 -6 -6 -6 -6 -6 -6 -7 -7 -7 -7 -7 -7
-5 -5 -5 -5 -5 -5 -5 -5 -5 -5 -5 -5 -5 -5 -5 -5 -5 -5 -6 -6 -6 -6 -6 -6 -6 -6 -6 -6 -6 -6 -6 -6 -6 -6 -6 -6 -6 -6 -6 -6 -6 -6
-5 -5 -5 -5 -5 -5 -5 -5 -5 -5 -5 -5 -5 -5 -5 -5 -5 -5 -6 -6 -6 -6 -6 -6 -6 -6 -6 -6 -6 -6 -6 -6 -6 -6 -6 -6 -6 -6 -6 -6 -6 -6
-5 -5 -5 -5 -5 -5 -5 -5 -5 -5 -5 -5 -5 -5 -5 -5 -5 -5 -5 -6 -6 -6 -6 -6 -6 -6 -6 -6 -6 -6 -6 -6 -6 -6 -6 -6 -6 -6 -6 -6 -6 -6
-5 -5 -5 -5 -5 -5 -5 -5 -5 -5 -5 -5 -5 -5 -5 -5 -5 -5 -5 -5 -5 -6 -6 -6 -6 -6 -6 -6 -6 -6 -6 -6 -6 -7 -7 -6 -6 -6 -6 -6 -6 -6
-6 -6 -6 -5 -5 -5 -5 -5 -5 -5 -5 -5 -5 -5 -5 -5 -5 -5 -5 -5 -5 -5 -5 -6 -6 -6 -6 -6 -6 -6 -6 -6 -6 -6 -7 -7 -6 -6 -6 -6 -6 -6
-6 -6 -6 -6 -6 -6 -5 -5 -6 -6 -6 -6 -6 -6 -6 -6 -6 -5 -5 -6 -6 -6 -6 -6 -6 -6 -6 -6 -5 -5 -5 -6 -6 -6 -6 -6 -6 -6 -6 -6 -6 -7
-6 -6 -6 -6 -6 -6 -6 -6 -6 -6 -6 -6 -6 -7 -6 -7 -7 -7 -7 -7 -7 -6 -6 -6 -6 -6 -6 -6 -5 -5 -5 -6 -6 -6 -6 -6 -7 -6 -6 -6 -6 -7
-6 -6 -6 -6 -6 -6 -6 -6 -6 -6 -6 -6 -7 -7 -7 -7 -7 -7 -7 -7 -6 -6 -6 -6 -6 -6 -6 -6 -5 -5 -5 -6 -6 -6 -6 -6 -6 -6 -6 -6 -7 -7
-6 -6 -7 -7 -7 -7 -7 -6 -6 -6 -6 -6 -6 -6 -7 -7 -7 -7 -7 -7 -6 -6 -6 -6 -6 -6 -6 -6 -6 -5 -6 -6 -6 -6 -6 -6 -6 -6 -6 -6 -6 -6
-6 -6 -7 -7 -7 -7 -7 -7 -6 -6 -6 -6 -6 -6 -6 -7 -7 -7 -7 -7 -7 -7 -6 -6 -6 -6 -6 -6 -6 -6 -6 -6 -6 -6 -6 -6 -6 -6 -7 -7 -7 -7
-7 -7 -7 -7 -7 -7 -7 -7 -7 -6 -7 -7 -6 -6 -6 -6 -6 -7 -7 -6 -7 -7 -7 -7 -7 -7 -6 -6 -6 -6 -6 -6 -6 -6 -6 -6 -6 -6 -7 -7 -7 -7
-7 -7 -6 -6 -7 -7 -7 -7 -7 -7 -7 -7 -7 -6 -6 -6 -6 -7 -7 -6 -6 -6 -7 -7 -7 -7 -7 -6 -6 -6 -6 -6 -6 -6 -6 -6 -6 -6 -6 -7 -7 -7
-7 -7 -6 -6 -7 -7 -7 -7 -7 -7 -7 -7 -7 -7 -6 -6 -6 -7 -7 -7 -6 -6 -6 -7 -7 -7 -7 -6 -6 -6 -6 -6 -6 -6 -6 -6 -6 -6 -6 -7 -7 -7
-7 -7 -7 -7 -7 -7 -6 -6 -6 -6 -6 -7 -7 -7 -7 -7 -7 -7 -7 -7 -7 -6 -6 -7 -7 -7 -7 -6 -6 -6 -6 -6 -6 -6 -6 -6 -6 -6 -6 -7 -7 -7
-7 -7 -7 -7 -7 -7 -7 -7 -6 -7 -7 -7 -7 -7 -7 -7 -7 -7 -7 -7 -7 -6 -7 -7 -7 -7 -7 -6 -6 -6 -6 -6 -6 -6 -6 -6 -6 -6 -6 -7 -7 -7
Height
5925 5926 5927 5928 5929 5930 5931 5932 5932 5933 5934 5934 5935 5935 5936 5937 5937 5938 5938 5938 5938 5938 5938 5938 5937 5937 5937 5938 5938 5939 5939 5940 5941 5942 5942 5943 5944 5944 5944 5945 5946 5946
5925 5926 5927 5928 5929 5930 5931 5932 5933 5933 5934 5935 5935 5936 5937 5937 5938 5939 5939 5939 5939 5939 5939 5938 5938 5938 5938 5938 5938 5939 5940 5941 5941 5942 5942 5942 5943 5943 5943 5944 5944 5945
5925 5926 5927 5928 5929 5930 5931 5932 5933 5934 5934 5935 5936 5936 5937 5938 5938 5939 5939 5940 5940 5939 5939 5939 5939 5939 5939 5939 5939 5940 5940 5941 5941 5942 5942 5942 5943 5943 5943 5944 5944 5944
5925 5926 5927 5928 5929 5930 5931 5932 5933 5934 5935 5935 5936 5936 5937 5938 5938 5939 5939 5940 5940 5940 5940 5940 5939 5940 5940 5940 5940 5940 5940 5941 5941 5942 5942 5942 5943 5943 5944 5944 5944 5944
5925 5926 5927 5928 5929 5930 5931 5932 5933 5934 5935 5935 5936 5936 5937 5938 5938 5939 5939 5939 5940 5940 5940 5940 5940 5940 5940 5940 5940 5940 5941 5941 5941 5942 5942 5942 5943 5943 5944 5944 5944 5944
5924 5925 5926 5927 5928 5929 5930 5931 5933 5933 5934 5935 5935 5936 5937 5937 5938 5938 5939 5939 5939 5939 5939 5939 5939 5940 5940 5940 5940 5941 5941 5941 5941 5942 5942 5943 5943 5944 5944 5945 5945 5945
5923 5924 5925 5926 5927 5928 5929 5931 5932 5933 5933 5934 5935 5936 5936 5937 5937 5938 5938 5938 5939 5939 5939 5939 5939 5939 5939 5940 5940 5940 5941 5941 5941 5942 5942 5943 5943 5944 5944 5944 5944 5944
5922 5923 5924 5925 5926 5927 5929 5929 5931 5931 5932 5933 5934 5935 5935 5936 5937 5937 5938 5938 5938 5938 5938 5938 5939 5939 5939 5939 5939 5940 5940 5940 5941 5941 5942 5943 5943 5943 5943 5944 5944 5944
5921 5922 5923 5924 5925 5926 5928 5928 5929 5930 5931 5932 5933 5934 5934 5935 5936 5936 5937 5937 5937 5937 5937 5937 5938 5938 5938 5938 5938 5939 5939 5939 5940 5941 5941 5942 5942 5942 5943 5943 5943 5943
5920 5921 5922 5923 5924 5925 5926 5927 5928 5929 5930 5931 5932 5933 5933 5934 5934 5935 5935 5936 5936 5936 5936 5937 5937 5937 5938 5938 5938 5938 5938 5939 5939 5940 5940 5940 5941 5941 5941 5941 5942 5942
5918 5919 5921 5922 5923 5924 5925 5926 5927 5928 5929 5930 5931 5931 5932 5933 5933 5933 5934 5934 5935 5935 5936 5936 5936 5936 5936 5937 5937 5937 5937 5938 5938 5938 5939 5939 5940 5940 5940 5940 5940 5941
5916 5917 5918 5920 5921 5922 5923 5924 5926 5927 5927 5928 5929 5930 5931 5931 5932 5932 5932 5933 5933 5934 5935 5935 5935 5935 5936 5936 5936 5936 5936 5937 5937 5937 5938 5938 5938 5939 5939 5939 5939 5940
5914 5915 5916 5918 5919 5920 5921 5922 5924 5925 5926 5927 5927 5928 5929 5930 5930 5930 5931 5931 5932 5933 5933 5934 5934 5935 5935 5935 5935 5935 5935 5935 5936 5936 5937 5937 5937 5937 5937 5938 5938 5939
5911 5913 5914 5916 5917 5919 5920 5921 5922 5923 5924 5925 5926 5927 5927 5928 5928 5929 5929 5930 5930 5931 5932 5933 5933 5934 5934 5934 5934 5934 5934 5934 5935 5936 5936 5936 5936 5936 5936 5936 5936 5937
5909 5911 5912 5913 5915 5917 5918 5919 5920 5921 5922 5923 5924 5925 5925 5926 5926 5927 5928 5928 5928 5929 5930 5931 5932 5932 5932 5931 5932 5932 5932 5932 5933 5934 5934 5934 5935 5935 5934 5934 5933 5934
5908 5909 5910 5911 5913 5914 5915 5916 5917 5918 5919 5920 5921 5922 5923 5923 5924 5924 5925 5925 5926 5926 5928 5929 5929 5929 5929 5929 5929 5929 5929 5930 5931 5931 5931 5931 5932 5932 5932 5931 5931 5931
5907 5907 5908 5910 5912 5912 5912 5913 5914 5915 5915 5917 5919 5920 5921 5921 5922 5921 5922 5923 5924 5925 5925 5925 5926 5926 5926 5926 5927 5927 5928 5928 5929 5928 5929 5929 5929 5929 5928 5928 5930 5930
5904 5904 5906 5909 5910 5910 5910 5910 5911 5912 5913 5915 5916 5917 5918 5919 5921 5922 5921 5921 5922 5923 5922 5922 5923 5923 5924 5924 5924 5925 5926 5927 5927 5926 5927 5926 5926 5925 5924 5925 5929 5931
5900 5901 5903 5907 5908 5908 5908 5908 5909 5910 5911 5912 5912 5913 5914 5915 5916 5919 5919 5919 5919 5919 5919 5920 5921 5921 5921 5921 5922 5922 5924 5924 5924 5924 5924 5923 5922 5922 5922 5924 5927 5928
5898 5899 5900 5903 5905 5905 5906 5906 5906 5907 5908 5909 5910 5911 5913 5912 5912 5914 5917 5917 5917 5916 5916 5917 5918 5918 5918 5919 5919 5919 5920 5921 5922 5922 5921 5921 5921 5921 5922 5923 5924 5924
5895 5897 5899 5900 5901 5903 5904 5904 5904 5904 5905 5906 5906 5908 5911 5911 5910 5911 5913 5914 5914 5913 5913 5914 5915 5915 5916 5916 5916 5916 5917 5918 5919 5919 5918 5918 5919 5920 5921 5921 5920 5919
5892 5894 5896 5897 5898 5900 5901 5902 5901 5901 5902 5902 5902 5904 5908 5909 5907 5907 5908 5909 5910 5911 5910 5911 5912 5912 5912 5913 5913 5913 5914 5914 5915 5916 5915 5915 5916 5918 5918 5918 5917 5916
5889 5890 5892 5894 5895 5896 5897 5898 5899 5899 5899 5899 5899 5900 5904 5906 5905 5905 5905 5906 5906 5906 5906 5908 5909 5909 5908 5909 5909 5910 5910 5910 5911 5912 5911 5911 5913 5914 5915 5914 5914 5913
5885 5886 5888 5889 5891 5893 5894 5895 5896 5896 5896 5896 5895 5896 5899 5901 5903 5903 5903 5903 5902 5901 5901 5902 5903 5903 5903 5905 5906 5906 5907 5907 5907 5908 5907 5907 5908 5910 5911 5910 5909 5909
5880 5882 5884 5886 5887 5889 5890 5891 5892 5893 5893 5893 5893 5893 5894 5896 5898 5899 5899 5898 5897 5896 5896 5897 5898 5899 5900 5901 5902 5902 5903 5903 5903 5903 5903 5903 5904 5906 5906 5906 5904 5903
5876 5878 5880 5881 5883 5884 5886 5887 5888 5889 5890 5890 5890 5890 5890 5891 5892 5893 5893 5893 5892 5893 5894 5895 5896 5896 5896 5897 5898 5898 5898 5898 5898 5899 5899 5899 5899 5900 5901 5902 5901 5899
Wind_Speed
15 14 13 12 11 10 9 8 7 6 5 5 4 4 3 3 3 4 4 4 5 6 6 5 4 3 2 1 1 1 2 2 2 3 3 4 4 5 5 4 4 5
15 14 14 12 11 10 10 8 8 7 5 4 4 3 2 1 2 2 3 4 4 6 7 7 6 4 3 2 1 1 1 2 2 2 3 3 3 4 4 3 3 4
15 15 14 13 12 11 10 9 8 7 5 5 4 3 2 2 1 1 1 2 3 5 7 8 8 6 4 2 1 1 1 2 2 3 2 3 3 3 3 4 4 4
15 14 14 13 12 11 10 9 8 7 6 5 4 3 3 3 2 2 1 1 2 4 6 8 9 8 6 3 1 1 1 2 2 2 2 3 3 3 4 4 4 4
17 16 15 13 13 12 11 10 9 8 7 6 5 5 4 4 4 3 3 2 2 4 6 8 9 10 9 6 3 3 2 2 2 2 2 3 3 3 4 4 4 5
19 18 17 16 15 14 13 12 11 9 9 8 7 7 6 6 5 4 4 3 3 4 6 7 9 10 10 8 5 4 3 3 3 3 3 3 4 4 4 4 5 5
21 21 20 18 17 16 15 14 13 12 11 9 9 8 8 7 6 5 5 5 5 6 6 8 9 11 11 10 7 5 4 3 4 4 4 4 4 4 4 4 4 5
22 22 21 20 19 19 18 17 15 14 13 11 11 10 9 9 8 7 6 6 6 7 8 8 10 11 12 11 10 7 5 4 4 4 5 4 4 3 3 3 4 4
23 23 22 22 21 21 19 19 17 16 15 13 13 12 11 11 10 9 8 8 8 8 9 10 10 11 12 13 12 10 7 6 5 5 5 4 4 4 3 4 4 4
24 24 24 23 23 22 21 20 19 18 17 15 15 14 13 12 11 11 10 10 9 9 10 11 12 12 13 13 13 11 9 8 7 7 6 5 5 5 4 4 5 4
25 25 25 24 24 23 22 22 20 20 19 17 17 16 15 14 13 13 12 12 11 12 12 13 13 14 14 14 13 13 11 10 9 8 8 7 7 6 6 6 6 6
27 27 26 26 26 25 24 24 22 22 21 20 19 18 16 16 16 15 15 15 15 15 15 16 16 16 16 16 14 13 13 11 10 10 9 9 9 8 8 8 8 8
28 28 28 27 27 26 26 25 24 23 23 22 21 20 19 19 19 18 18 18 18 18 18 19 19 20 20 18 16 15 14 13 12 11 11 11 11 10 10 11 10 9
28 29 29 29 28 27 27 26 26 25 24 24 23 22 21 22 22 22 21 21 21 22 22 22 22 22 22 21 19 16 15 14 12 12 13 14 13 13 13 13 12 12
26 27 27 28 28 28 28 28 28 27 27 26 26 25 25 25 25 25 24 25 25 25 25 24 23 22 21 21 19 17 16 15 13 12 14 15 16 16 16 15 14 14
23 23 25 26 27 28 28 28 28 28 28 29 29 28 28 28 28 28 28 28 28 27 26 25 25 23 22 22 20 19 18 16 14 14 15 16 17 18 18 18 16 16
22 23 24 25 25 26 27 27 26 26 27 27 28 28 27 28 28 27 27 28 26 24 23 24 25 24 22 21 19 19 18 16 16 17 17 17 18 19 20 21 19 19
25 25 24 23 24 24 25 25 25 25 25 23 23 23 23 25 25 24 24 25 24 22 22 23 24 23 21 21 20 19 18 17 17 18 19 19 20 21 23 23 21 22
27 26 24 23 24 24 24 25 25 25 24 22 21 20 20 24 25 25 25 25 23 23 22 22 22 22 22 22 22 21 19 19 19 19 20 22 23 24 25 25 23 22
28 27 26 25 25 25 26 26 26 26 25 24 23 22 21 23 25 26 26 26 25 23 23 22 22 23 23 24 24 23 22 21 20 21 22 24 24 25 25 25 23 22
29 28 28 27 26 26 26 27 28 28 26 26 26 26 24 24 26 27 27 26 26 26 26 25 25 24 24 25 26 26 24 23 22 23 25 25 24 24 25 25 25 26
31 30 30 29 27 27 28 28 29 29 29 29 30 30 28 28 29 31 30 28 28 29 29 27 26 27 27 27 28 28 27 27 26 26 27 28 27 25 25 26 28 30
32 32 32 32 30 30 31 30 30 31 32 33 34 34 32 31 32 33 32 32 31 32 32 30 28 28 29 30 31 31 30 30 30 29 30 31 29 28 28 29 30 31
33 33 33 33 32 32 33 34 33 34 35 35 36 36 35 34 34 34 34 35 35 35 35 34 32 30 31 33 33 33 33 33 33 33 33 33 32 31 30 30 31 32
32 31 31 31 31 32 34 36 37 37 36 37 38 38 38 36 36 37 38 38 37 35 33 33 32 33 35 36 36 36 35 35 35 35 35 36 35 34 33 33 34 34
31 31 31 31 32 34 35 36 37 38 38 38 39 39 40 39 38 39 40 41 40 37 34 34 36 38 39 39 39 39 39 38 38 37 37 37 36 35 35 34 35 36
Wind_Direction
179 178 178 177 175 172 168 162 156 154 152 148 141 130 127 111 97 86 75 62 53 56 57 49 45 45 39 28 57 153 203 212 209 208 200 193 192 194 201 211 205 204
184 184 185 185 185 183 180 176 173 174 172 170 168 156 154 143 116 103 82 65 45 41 43 41 36 29 26 22 352 312 272 248 246 244 228 224 228 230 234 246 248 241
193 192 192 191 192 192 192 191 191 193 195 196 197 187 187 205 199 161 67 63 48 31 31 36 33 23 22 25 1 317 272 251 255 257 250 251 256 258 261 264 269 278
204 203 202 201 202 203 205 208 209 211 215 217 218 216 216 227 234 241 285 16 36 20 20 28 27 19 14 9 353 341 294 259 258 266 273 278 273 270 272 272 274 283
210 212 213 212 214 215 216 219 222 224 227 232 235 238 238 242 248 254 278 321 354 359 7 17 17 13 10 3 347 345 340 313 296 296 291 281 276 274 274 279 283 284
211 215 217 217 219 221 223 226 229 232 234 238 241 244 245 246 253 262 276 299 319 334 352 4 7 5 3 360 348 336 336 336 325 311 295 278 270 270 272 277 281 281
210 213 216 218 220 224 227 229 232 234 237 241 243 247 249 250 254 262 273 289 306 322 339 351 355 353 353 351 344 331 326 332 327 309 293 282 270 264 270 278 279 277
214 215 218 220 223 226 229 232 234 236 239 243 246 248 252 254 256 261 270 284 299 315 329 337 341 342 342 341 338 330 318 310 307 299 292 287 279 269 264 267 269 266
218 219 221 223 225 227 230 233 236 238 241 244 247 249 250 254 258 262 269 281 294 307 317 322 326 329 331 332 331 326 314 298 286 282 285 285 280 272 259 252 247 243
223 225 226 227 229 231 233 235 238 241 244 246 249 251 252 256 260 266 271 279 288 296 302 307 312 316 321 322 322 318 309 293 278 274 276 276 271 263 255 252 250 249
226 228 230 231 233 234 236 238 241 244 247 249 252 255 257 261 265 269 274 279 284 289 293 297 301 305 309 311 312 310 302 290 278 270 267 265 262 258 257 257 259 262
227 230 232 234 236 237 239 241 243 246 250 252 254 257 261 265 269 272 276 280 283 286 288 291 293 296 299 301 301 299 295 290 279 270 265 261 258 256 258 262 266 271
230 232 234 235 237 239 241 243 245 248 251 253 255 258 261 265 268 271 273 276 279 282 284 286 289 291 292 293 292 290 287 283 276 270 267 263 260 259 261 264 266 269
235 236 239 239 241 243 246 248 250 251 253 255 257 259 260 263 266 268 270 272 273 275 278 280 284 288 290 290 289 287 282 277 275 273 271 267 264 261 259 261 264 266
238 239 241 242 244 247 249 252 255 256 258 259 261 262 262 263 265 267 269 270 272 273 275 278 280 281 282 280 277 273 268 265 267 268 268 268 266 264 262 260 260 262
241 242 245 246 246 247 248 251 254 257 260 261 262 263 263 264 265 267 268 269 271 273 274 275 275 272 270 269 266 262 257 255 257 257 257 260 262 264 265 262 258 259
243 244 247 249 248 248 248 249 250 252 255 258 262 265 267 265 260 260 266 267 266 268 269 270 270 267 265 263 261 259 257 254 253 253 253 255 256 258 260 261 262 264
241 244 247 248 250 250 248 249 250 252 252 253 258 264 268 262 252 250 262 266 260 258 261 264 265 264 261 260 258 257 257 255 255 254 253 253 254 255 258 263 267 268
235 238 242 245 249 249 248 248 251 253 254 253 253 253 251 250 246 245 256 264 261 257 259 263 265 264 262 264 262 259 258 259 258 257 255 253 254 256 260 266 270 271
234 235 238 241 244 246 248 249 251 253 256 256 255 249 243 245 246 244 251 261 264 261 258 258 262 263 263 265 265 263 263 262 258 258 258 258 259 261 264 267 270 269
239 239 240 241 243 246 248 249 251 252 255 256 256 251 246 248 249 246 247 255 261 262 260 257 260 262 261 262 264 265 265 262 258 257 259 260 262 266 269 269 269 268
242 243 244 244 246 248 249 250 251 252 252 254 255 253 248 246 248 249 250 251 252 255 258 259 260 260 258 258 262 263 263 262 260 260 261 261 261 264 267 268 268 268
242 243 244 245 247 249 251 251 250 251 251 251 254 255 252 248 248 251 254 254 251 251 255 255 254 255 257 258 260 262 262 262 262 261 262 262 260 260 262 264 265 267
241 242 243 245 247 249 251 251 249 250 250 250 252 254 254 253 252 252 256 257 255 254 254 252 250 254 259 261 262 263 263 264 264 264 264 264 263 262 262 263 264 265
240 241 243 246 248 250 250 250 248 249 250 251 253 255 256 257 257 256 258 259 259 256 254 253 256 261 263 263 264 265 264 265 266 266 267 267 267 266 264 264 266 267
242 244 247 250 253 253 254 254 252 251 251 252 254 256 258 258 258 258 259 259 258 255 254 257 261 263 263 263 263 264 265 266 266 267 268 269 269 269 267 267 269 272